Crown Princess — ZCDM6 — position and weather

sailwx.info

Track history (hours):
 
Tides and Currents Weather Stations Pressure Air Temp Water Temp Dewpoint Dewpoint Depression Visibility Wind Speed Wind Dir Waves Ship Positions

Crown Princess

Last reported at 2014-Jul-29 04:19 UTC. Time now 2014-Jul-29 19:02 UTC.
Position N 58°15' W 135°35'.

Type: Ship. MMSI: 310500000.

Date/timePositionNaut miles runAvg speedWind from/ knotsBaromVisibWave heightAir tempDewpointWater temp
2014-Jul-29 04:19N 58°15' W 135°35'912.0
2014-Jul-29 03:33N 58°19' W 135°50'1010.1
2014-Jul-29 02:34N 58°27' W 136°01'1312.8
2014-Jul-29 01:33N 58°40' W 136°05'2 0.3
2014-Jul-28 18:15N 58°38' W 136°06'1013.8
2014-Jul-28 17:33N 58°28' W 136°02'9 9.1
2014-Jul-28 16:33N 58°19' W 136°06'  
2014-Jul-25 00:28N 58°19' W 136°08'1111.6
2014-Jul-24 23:34N 58°29' W 136°03'1414.2
2014-Jul-24 22:33N 58°43' W 136°08'2 0.3
2014-Jul-24 15:33N 58°41' W 136°12'1414.2
2014-Jul-24 14:34N 58°28' W 136°02'10 9.7
2014-Jul-24 13:34N 58°19' W 135°53'1211.9
2014-Jul-24 12:33N 58°15' W 135°31'  
2014-Jul-21 08:29N 54°20' W 131°05'22513.3
2014-Jul-20 15:32N 51°05' W 128°01'1111.7
2014-Jul-20 14:33N 50°58' W 127°46'1212.1
2014-Jul-20 13:33N 50°51' W 127°31'1312.7
2014-Jul-20 12:33N 50°45' W 127°13'1413.5
2014-Jul-20 11:33N 50°41' W 126°52'7614.1
2014-Jul-20 06:10N 50°00' W 125°12'1215.5
2014-Jul-20 05:23N 49°51' W 124°59'1315.6
2014-Jul-20 04:31N 49°41' W 124°45'1515.6
2014-Jul-20 03:33N 49°30' W 124°29'1616.3
2014-Jul-20 02:33N 49°23' W 124°07'1717.0
2014-Jul-20 01:33N 49°18' W 123°42'1616.1
2014-Jul-20 00:33N 49°19' W 123°17'7 6.9
2014-Jul-19 23:32N 49°17' W 123°06'0 0.0
2014-Jul-19 22:32N 49°17' W 123°06'0 0.0
2014-Jul-19 21:31N 49°17' W 123°06'0 0.0
2014-Jul-19 20:31N 49°17' W 123°06'0 0.0
2014-Jul-19 19:30N 49°17' W 123°06'0 0.0
2014-Jul-19 18:33N 49°17' W 123°06'0 0.0
2014-Jul-19 17:32N 49°17' W 123°06'0 0.0
2014-Jul-19 16:26N 49°17' W 123°06'0 0.0
2014-Jul-19 15:32N 49°17' W 123°06'0 0.0
2014-Jul-19 14:31N 49°17' W 123°06'0 0.1
2014-Jul-19 13:33N 49°17' W 123°06'7 7.1
2014-Jul-19 12:34N 49°19' W 123°17'1615.9
2014-Jul-19 11:34N 49°19' W 123°41'1616.0
2014-Jul-19 10:34N 49°23' W 124°05'1312.8
2014-Jul-19 09:33N 49°27' W 124°24'1212.3
2014-Jul-19 08:33N 49°36' W 124°37'1312.5
2014-Jul-19 07:31N 49°45' W 124°51'1312.9
2014-Jul-19 06:33N 49°55' W 125°04'1413.0
2014-Jul-19 05:26N 50°06' W 125°18'  
Track history (hours):
 
Tides and Currents Weather Stations Pressure Air Temp Water Temp Dewpoint Dewpoint Depression Visibility Wind Speed Wind Dir Waves Ship Positions

Crown Princess

Last reported at 2014-Jul-29 04:19 UTC. Time now 2014-Jul-29 19:02 UTC.
Position N 58°15' W 135°35'.

Type: Ship. MMSI: 310500000.

Date/timePositionNaut miles runAvg speedWind from/ knotsBaromVisibWave heightAir tempDewpointWater temp
2014-Jul-29 04:19N 58°15' W 135°35'912.0
2014-Jul-29 03:33N 58°19' W 135°50'1010.1
2014-Jul-29 02:34N 58°27' W 136°01'1312.8
2014-Jul-29 01:33N 58°40' W 136°05'2 0.3
2014-Jul-28 18:15N 58°38' W 136°06'1013.8
2014-Jul-28 17:33N 58°28' W 136°02'9 9.1
2014-Jul-28 16:33N 58°19' W 136°06'  
2014-Jul-25 00:28N 58°19' W 136°08'1111.6
2014-Jul-24 23:34N 58°29' W 136°03'1414.2
2014-Jul-24 22:33N 58°43' W 136°08'2 0.3
2014-Jul-24 15:33N 58°41' W 136°12'1414.2
2014-Jul-24 14:34N 58°28' W 136°02'10 9.7
2014-Jul-24 13:34N 58°19' W 135°53'1211.9
2014-Jul-24 12:33N 58°15' W 135°31'  
2014-Jul-21 08:29N 54°20' W 131°05'22513.3
2014-Jul-20 15:32N 51°05' W 128°01'1111.7
2014-Jul-20 14:33N 50°58' W 127°46'1212.1
2014-Jul-20 13:33N 50°51' W 127°31'1312.7
2014-Jul-20 12:33N 50°45' W 127°13'1413.5
2014-Jul-20 11:33N 50°41' W 126°52'7614.1
2014-Jul-20 06:10N 50°00' W 125°12'1215.5
2014-Jul-20 05:23N 49°51' W 124°59'1315.6
2014-Jul-20 04:31N 49°41' W 124°45'1515.6
2014-Jul-20 03:33N 49°30' W 124°29'1616.3
2014-Jul-20 02:33N 49°23' W 124°07'1717.0
2014-Jul-20 01:33N 49°18' W 123°42'1616.1
2014-Jul-20 00:33N 49°19' W 123°17'7 6.9
2014-Jul-19 23:32N 49°17' W 123°06'0 0.0
2014-Jul-19 22:32N 49°17' W 123°06'0 0.0
2014-Jul-19 21:31N 49°17' W 123°06'0 0.0
2014-Jul-19 20:31N 49°17' W 123°06'0 0.0
2014-Jul-19 19:30N 49°17' W 123°06'0 0.0
2014-Jul-19 18:33N 49°17' W 123°06'0 0.0
2014-Jul-19 17:32N 49°17' W 123°06'0 0.0
2014-Jul-19 16:26N 49°17' W 123°06'0 0.0
2014-Jul-19 15:32N 49°17' W 123°06'0 0.0
2014-Jul-19 14:31N 49°17' W 123°06'0 0.1
2014-Jul-19 13:33N 49°17' W 123°06'7 7.1
2014-Jul-19 12:34N 49°19' W 123°17'1615.9
2014-Jul-19 11:34N 49°19' W 123°41'1616.0
2014-Jul-19 10:34N 49°23' W 124°05'1312.8
2014-Jul-19 09:33N 49°27' W 124°24'1212.3
2014-Jul-19 08:33N 49°36' W 124°37'1312.5
2014-Jul-19 07:31N 49°45' W 124°51'1312.9
2014-Jul-19 06:33N 49°55' W 125°04'1413.0
2014-Jul-19 05:26N 50°06' W 125°18'  

Dump ship's entire track history